QAEM 100 DEB

基本信息
目录编号:
58819
目录名称:
QAEM 100 DEB
国际标识:
2024-015C
轨道中心:
EARTH
物体状态:
已陨落(2024-11-08)
发射日期:
2024-01-20 UTC
轨道信息
数据来源: 国际轨道数据
星历时间: 2024-01-21T06:56:57+0800
半长轴: 7124.61km
偏心率: 0.0012646
轨道倾角: 64.508°
近地点辐角: 291.602°
升交点赤经: 111.660°
平近点角: 225.738°
近地点: 737.465km
远地点: 755.485km
周期: 99.747分钟
每日圈数: 14.436476
详细信息
发射场:
SMTS
轨道高度:
LEO
数据来源:
AOE Integration Group
参考系:
TEME
时间系统:
UTC
历元类型:
SGP4
2D轨道图
3D轨道图
轨道高度分析图
轨道倾角分析图
轨道综合分析图
查看轨道综合分析图